When you browse on this site, cookies collect data to enhance your experience and personalize the content and advertising you see.
Visit our Privacy Policy to learn more. By continuing to use the site, you agree to this use of cookies and data.
  • Em Portugal
  • Lista de países
  • Para 7 dias
  • Temperatura da água
  • Mapa do tempo
  • Widgets de tempo
  • user-avatar
    Iniciar Sessão

    Previsão horária em Adelaide

    Hoje, 4 Junho, Quinta-feira

    Tempo Temperatura Precipitação Vento Pressão Humidade
    00:00 +8°C° 0 mm 2 m/s 770 mmHg 83%
    01:00 +8°C° 0 mm 2 m/s 770 mmHg 83%
    02:00 +8°C° 0 mm 2 m/s 770 mmHg 83%
    03:00 +8°C° 0 mm 2 m/s 771 mmHg 83%
    04:00 +7°C° 0 mm 2 m/s 771 mmHg 83%
    05:00 +7°C° 0 mm 2 m/s 771 mmHg 84%
    06:00 +7°C° 0 mm 2 m/s 771 mmHg 84%
    07:00 +8°C° 0 mm 2 m/s 771 mmHg 79%
    08:00 +9°C° 0 mm 2 m/s 771 mmHg 75%
    09:00 +10°C° 0 mm 2 m/s 771 mmHg 70%
    10:00 +13°C° 0 mm 2 m/s 771 mmHg 65%
    11:00 +14°C° 0 mm 2 m/s 771 mmHg 59%
    12:00 +15°C° 0 mm 2 m/s 770 mmHg 54%
    13:00 +15°C° 0 mm 1 m/s 770 mmHg 55%
    14:00 +15°C° 0 mm 1 m/s 769 mmHg 57%
    15:00 +15°C° 0 mm 1 m/s 769 mmHg 58%
    16:00 +14°C° 0 mm 1 m/s 769 mmHg 63%
    17:00 +13°C° 0 mm 1 m/s 769 mmHg 68%
    18:00 +11°C° 0 mm 1 m/s 769 mmHg 72%
    19:00 +11°C° 0 mm 1 m/s 769 mmHg 71%
    20:00 +11°C° 0 mm 1 m/s 769 mmHg 69%
    21:00 +11°C° 0 mm 1 m/s 769 mmHg 68%
    22:00 +9°C° 0 mm 2 m/s 769 mmHg 67%
    23:00 +9°C° 0 mm 2 m/s 769 mmHg 67%

    Amanhã, 5 Junho, Sexta-feira

    Tempo Temperatura Precipitação Vento Pressão Humidade
    00:00 +9°C° 0 mm 2 m/s 768 mmHg 67%
    01:00 +9°C° 0 mm 2 m/s 768 mmHg 68%
    02:00 +9°C° 0 mm 2 m/s 768 mmHg 69%
    03:00 +8°C° 0 mm 2 m/s 768 mmHg 69%
    04:00 +8°C° 0 mm 2 m/s 768 mmHg 70%
    05:00 +8°C° 0 mm 2 m/s 768 mmHg 70%
    06:00 +8°C° 0 mm 2 m/s 768 mmHg 70%
    07:00 +9°C° 0 mm 2 m/s 768 mmHg 66%
    08:00 +11°C° 0 mm 1 m/s 768 mmHg 62%
    09:00 +13°C° 0 mm 1 m/s 769 mmHg 58%
    10:00 +13°C° 0 mm 1 m/s 768 mmHg 56%
    11:00 +14°C° 0 mm 1 m/s 768 mmHg 53%
    12:00 +15°C° 0 mm 1 m/s 767 mmHg 50%
    13:00 +15°C° 0 mm 1 m/s 767 mmHg 52%
    14:00 +15°C° 0 mm 1 m/s 767 mmHg 54%
    15:00 +15°C° 0 mm 1 m/s 766 mmHg 56%
    16:00 +13°C° 0 mm 1 m/s 766 mmHg 62%
    17:00 +12°C° 0 mm 2 m/s 767 mmHg 69%
    18:00 +10°C° 0 mm 2 m/s 767 mmHg 75%
    19:00 +9°C° 0 mm 2 m/s 767 mmHg 76%
    20:00 +9°C° 0 mm 2 m/s 767 mmHg 76%
    21:00 +9°C° 0 mm 2 m/s 767 mmHg 77%
    22:00 +9°C° 0 mm 2 m/s 767 mmHg 78%
    23:00 +8°C° 0 mm 2 m/s 767 mmHg 78%

    Depois de amanhã, 6 Junho, Sábado

    Tempo Temperatura Precipitação Vento Pressão Humidade
    00:00 +9°C° 0 mm 1 m/s 766 mmHg 79%
    01:00 +9°C° 0 mm 1 m/s 766 mmHg 79%
    02:00 +9°C° 0 mm 1 m/s 766 mmHg 80%
    03:00 +9°C° 0 mm 1 m/s 766 mmHg 80%
    04:00 +9°C° 0 mm 1 m/s 766 mmHg 80%
    05:00 +9°C° 0 mm 1 m/s 766 mmHg 79%
    06:00 +8°C° 0 mm 1 m/s 766 mmHg 79%
    07:00 +9°C° 0 mm 1 m/s 766 mmHg 75%
    08:00 +10°C° 0 mm 1 m/s 766 mmHg 70%
    09:00 +11°C° 0 mm 1 m/s 766 mmHg 66%
    10:00 +12°C° 0 mm 1 m/s 766 mmHg 62%
    11:00 +13°C° 0 mm 2 m/s 766 mmHg 59%
    12:00 +14°C° 0 mm 2 m/s 765 mmHg 55%
    13:00 +14°C° 0 mm 2 m/s 765 mmHg 57%
    14:00 +13°C° 0 mm 3 m/s 765 mmHg 59%
    15:00 +14°C° 0 mm 3 m/s 765 mmHg 61%
    16:00 +12°C° 0 mm 3 m/s 765 mmHg 68%
    17:00 +11°C° 0 mm 3 m/s 765 mmHg 75%
    18:00 +10°C° 0 mm 2 m/s 766 mmHg 82%
    19:00 +10°C° 0 mm 2 m/s 766 mmHg 83%
    20:00 +10°C° 0 mm 2 m/s 766 mmHg 85%
    21:00 +10°C° 0 mm 2 m/s 766 mmHg 86%
    22:00 +10°C° 0 mm 2 m/s 766 mmHg 88%
    23:00 +10°C° 0 mm 2 m/s 766 mmHg 89%

    7 Junho, Domingo

    Tempo Temperatura Precipitação Vento Pressão Humidade
    00:00 +10°C° 0 mm 2 m/s 766 mmHg 90%
    01:00 +10°C° 0 mm 3 m/s 766 mmHg 90%
    02:00 +10°C° 0 mm 3 m/s 766 mmHg 90%
    03:00 +10°C° 0 mm 3 m/s 766 mmHg 89%
    04:00 +10°C° 0 mm 3 m/s 766 mmHg 89%
    05:00 +9°C° 0 mm 3 m/s 766 mmHg 89%
    06:00 +9°C° 0 mm 3 m/s 767 mmHg 89%
    07:00 +10°C° 0 mm 3 m/s 767 mmHg 84%
    08:00 +10°C° 0 mm 2 m/s 767 mmHg 78%
    09:00 +12°C° 0 mm 2 m/s 768 mmHg 73%
    10:00 +13°C° 0 mm 2 m/s 768 mmHg 69%
    11:00 +13°C° 0 mm 2 m/s 768 mmHg 65%
    12:00 +14°C° 0 mm 2 m/s 767 mmHg 61%
    13:00 +14°C° 0 mm 2 m/s 767 mmHg 61%
    14:00 +13°C° 0 mm 3 m/s 767 mmHg 62%
    15:00 +13°C° 0 mm 3 m/s 766 mmHg 62%
    16:00 +11°C° 0 mm 3 m/s 767 mmHg 68%
    17:00 +10°C° 0 mm 3 m/s 767 mmHg 74%
    18:00 +9°C° 0 mm 3 m/s 768 mmHg 80%
    19:00 +8°C° 0 mm 3 m/s 768 mmHg 80%
    20:00 +8°C° 0 mm 3 m/s 768 mmHg 80%
    21:00 +7°C° 0 mm 3 m/s 768 mmHg 80%
    22:00 +7°C° 0 mm 3 m/s 768 mmHg 79%
    23:00 +7°C° 0 mm 3 m/s 768 mmHg 79%

    8 Junho, Segunda-feira

    Tempo Temperatura Precipitação Vento Pressão Humidade
    00:00 +7°C° 0 mm 2 m/s 768 mmHg 78%
    01:00 +7°C° 0 mm 2 m/s 768 mmHg 77%
    02:00 +7°C° 0 mm 2 m/s 768 mmHg 76%
    03:00 +6°C° 0 mm 2 m/s 768 mmHg 76%
    04:00 +7°C° 0 mm 1 m/s 769 mmHg 76%
    05:00 +7°C° 0 mm 1 m/s 769 mmHg 76%
    06:00 +7°C° 0 mm 1 m/s 769 mmHg 77%
    07:00 +8°C° 0 mm 1 m/s 769 mmHg 73%
    08:00 +9°C° 0 mm 1 m/s 770 mmHg 69%
    09:00 +10°C° 0 mm 1 m/s 770 mmHg 65%
    10:00 +11°C° 0 mm 1 m/s 770 mmHg 61%
    11:00 +12°C° 0 mm 1 m/s 769 mmHg 57%
    12:00 +13°C° 0 mm 1 m/s 769 mmHg 53%
    13:00 +13°C° 0 mm 1 m/s 769 mmHg 54%
    14:00 +13°C° 0 mm 1 m/s 769 mmHg 56%
    15:00 +13°C° 0 mm 1 m/s 768 mmHg 57%
    16:00 +12°C° 0 mm 2 m/s 768 mmHg 61%
    17:00 +9°C° 0 mm 2 m/s 769 mmHg 65%
    18:00 +8°C° 0 mm 2 m/s 769 mmHg 69%
    19:00 +8°C° 0 mm 2 m/s 769 mmHg 69%
    20:00 +7°C° 0 mm 2 m/s 769 mmHg 70%
    21:00 +7°C° 0 mm 2 m/s 769 mmHg 70%
    22:00 +7°C° 0 mm 2 m/s 769 mmHg 70%
    23:00 +7°C° 0 mm 2 m/s 769 mmHg 71%

    9 Junho, Terça-feira

    Tempo Temperatura Precipitação Vento Pressão Humidade
    00:00 +6°C° 0 mm 2 m/s 769 mmHg 71%
    01:00 +6°C° 0 mm 2 m/s 769 mmHg 71%
    02:00 +6°C° 0 mm 2 m/s 769 mmHg 71%
    03:00 +6°C° 0 mm 2 m/s 769 mmHg 72%
    04:00 +6°C° 0 mm 2 m/s 769 mmHg 72%
    05:00 +6°C° 0 mm 2 m/s 769 mmHg 72%
    06:00 +6°C° 0 mm 2 m/s 770 mmHg 72%
    07:00 +7°C° 0 mm 2 m/s 770 mmHg 68%
    08:00 +8°C° 0 mm 2 m/s 770 mmHg 64%
    09:00 +9°C° 0 mm 3 m/s 770 mmHg 60%
    10:00 +12°C° 0 mm 2 m/s 770 mmHg 56%
    11:00 +13°C° 0 mm 2 m/s 769 mmHg 51%
    12:00 +14°C° 0 mm 1 m/s 769 mmHg 46%
    13:00 +14°C° 0 mm 1 m/s 769 mmHg 48%
    14:00 +14°C° 0 mm 1 m/s 768 mmHg 49%
    15:00 +14°C° 0 mm 1 m/s 768 mmHg 50%
    16:00 +12°C° 0 mm 1 m/s 768 mmHg 56%
    17:00 +11°C° 0 mm 1 m/s 769 mmHg 62%
    18:00 +9°C° 0 mm 1 m/s 769 mmHg 67%
    19:00 +9°C° 0 mm 1 m/s 769 mmHg 67%
    20:00 +8°C° 0 mm 2 m/s 769 mmHg 66%
    21:00 +7°C° 0 mm 2 m/s 769 mmHg 65%
    22:00 +7°C° 0 mm 2 m/s 769 mmHg 65%
    23:00 +7°C° 0 mm 2 m/s 769 mmHg 65%
    Mostrar mais